Regional Weather Roundup
Issued by NWS Wakefield, VA

Home | Current Version | Previous Version | Text Only | Print | Product List | Glossary On
Versions: 1 2 3 4 5 6 7 8 9 10 11 12 13 14 15 16 17 18 19 20 21 22 23 24 25 26 27 28 29 30 31 32 33 34 35 36 37 38 39 40 41 42 43 44 45 46 47 48 49 50
000
ASUS41 KAKQ 220010
RWRAKQ

REGIONAL WEATHER ROUNDUP
NATIONAL WEATHER SERVICE WAKEFIELD VA
800 PM EDT THU AUG 21 2014

Note: "fair" indicates few or no clouds below 12,000 feet with no
significant weather and/or obstructions to visibility. * = Denotes
station may not report precipitation (e.g., rain,snow,etc.),
thunder or fog.

VAZ042-051-052>054-056-220100-
NORTHERN VIRGINIA

CITY           SKY/WX    TMP DP  RH WIND       PRES   REMARKS
WASH NATIONAL  LGT RAIN  79  70  74 S3        29.99F
DULLES         CLOUDY    73  70  90 S6        30.00R THUNDER
FORT BELVOIR   LGT RAIN  73  73 100 NW3       29.99F
QUANTICO       CLOUDY    81  73  76 NE3       29.99S
FREDERICKSBRG* CLOUDY    80  75  85 CALM      29.98F
STAFFORD*      CLOUDY    77  77 100 CALM      30.03S
WARRENTON      LGT RAIN  79  77  91 SW3       30.00R
CULPEPER*      HVY RAIN N/A N/A N/A CALM      30.00S
MANASSAS*      CLOUDY    79  73  83 CALM      29.99S
LEESBURG*      CLOUDY    73  73 100 CALM      30.01S
WINCHESTER     CLOUDY    79  64  61 SW7       30.02R
$$

VAZ048-049-060>072-079>083-220100-
CENTRAL AND SOUTH CENTRAL VIRGINIA...AND NORTH CENTRAL NORTH CAROLINA

CITY           SKY/WX    TMP DP  RH WIND       PRES   REMARKS
RICHMOND       CLOUDY    85  69  58 W5        30.00S
CHESTERFIELD*  MOCLDY   N/A N/A N/A CALM      30.01S
HANOVER        CLOUDY    79  74  84 CALM      30.01S
TAPPAHANNOCK*  CLOUDY    79  74  84 CALM      30.00S
CHARLOTTSVILLE CLOUDY    79  71  76 VRB5      30.01F
ORANGE*        CLOUDY    79  72  78 CALM      30.02S
LOUISA*        CLOUDY    79  73  83 CALM      30.00S
FARMVILLE*     LGT RAIN  75  75 100 SW3       30.01F
SOUTH HILL*    MOCLDY    82  75  78 CALM      30.08S
ROANOKE RAPIDS MOCLDY    81  73  78 NW3       30.02R
RALEIGH        MOCLDY    80  70  71 CALM      30.04S
$$

VAZ088>098-220100-
SOUTHEAST VIRGINIA

CITY           SKY/WX    TMP DP  RH WIND       PRES   REMARKS
NORFOLK        CLOUDY    82  70  66 SE3       30.00S
VIRGINIA BEACH CLOUDY    79  72  79 S3        29.99F
NORFOLK NAVAL  CLOUDY    83  69  62 CALM      30.01S
WEST POINT*    CLOUDY    80  74  80 CALM      30.00F
NEWPORT NEWS   CLOUDY    84  74  71 CALM      29.99F
LANGLEY AFB    CLOUDY    82  74  77 S6        29.99S
FORT EUSTIS    MOCLDY    80  75  84 S3        29.98S
WILLIAMSBURG*  MOCLDY    82  75  78 CALM      30.00F
FRANKLIN*      CLOUDY    81  75  83 CALM      30.01R
WAKEFIELD      MOCLDY    80  77  90 CALM      30.00S
$$

VAZ020-022-025-037-045-220100-
WESTERN AND SOUTHWEST VIRGINIA

CITY           SKY/WX    TMP DP  RH WIND       PRES   REMARKS
STAUNTON*      CLOUDY    77  67  72 S5        30.08R
HOT SPRINGS VA CLOUDY    63  62  95 W9        30.21F
LYNCHBURG        N/A    N/A N/A N/A CALM      30.09R
DANVILLE       CLOUDY    79  74  84 CALM      30.06R
MARTINSVILLE   CLOUDY    77  77  99 CALM      30.11R FOG
ROANOKE        CLOUDY    72  68  87 W8        30.11F
BLACKSBURG     DRIZZLE   70  70 100 CALM      30.16F
DUBLIN*        LGT RAIN  72  71  95 CALM      30.16F
MARION*        RAIN      68  65  89 SW7       30.23S
HILLSVILLE*    RAIN      74  68  79 W8        30.20S
RICHLANDS*     LGT RAIN  69  67  93 S6        30.20F
WISE*          CLOUDY    68  68 100 S6        30.21F
ABINGDON*      LGT RAIN  76  71  86 NW7       30.18S
$$

MDZ021>025-VAZ099-100-220100-
SOUTHERN MARYLAND AND THE DELMARVA PENINSULA

CITY           SKY/WX    TMP DP  RH WIND       PRES   REMARKS
PATUXENT RIVER CLOUDY    79  72  79 S5        29.98S
BAY BRIDGE APT   N/A     79  72  78 CALM      29.99R
LEONARDTOWN    CLOUDY    79  70  73 CALM      30.00F
DOVER          CLOUDY    75  72  90 SE6       29.99S
GEORGETOWN     CLOUDY    74  71  91 SE6       30.01S
EASTON         CLOUDY    79  75  89 SE7       30.02F
CAMBRIDGE      CLOUDY    79  70  73 SE5       29.98F
SALISBURY      CLOUDY    77  73  87 SE5       30.00F
OCEAN CITY     CLOUDY    77  73  87 VRB5      30.01F
WALLOPS ISLAND CLOUDY    78  73  84 S9        30.01S
ACCOMACK*      CLOUDY    77  73  88 SE3       29.99F
$$

NCZ012>017-030>032-220100-
EASTERN NORTH CAROLINA

CITY           SKY/WX    TMP DP  RH WIND       PRES   REMARKS
ELIZABETH CITY CLOUDY    82  75  79 CALM      30.01R
AHOSKIE*       PTCLDY    80  76  89 CALM      30.02R
EDENTON*       CLOUDY    82  78  85 CALM      30.01R
CURRITUCK*     CLOUDY    81  70  69 CALM      30.02R
KILL DEVIL HLS CLOUDY    81  72  72 S3        29.99S
MANTEO         CLOUDY    82  72  69 S7        30.00S
CAPE HATTERAS  MOCLDY    81  78  91 SW6       30.01S
GOLDSBORO      PTCLDY    84  78  81 CALM      30.00R
WASHINGTON     MOCLDY    82  76  80 CALM      30.02R
GREENVILLE     PTCLDY    81  77  89 CALM      30.03R
NEW BERN       MOCLDY    84  75  74 S3        30.02R
WILMINGTON     PTCLDY    83  73  72 SW3       30.02S
$$

VAZ048-220100-
ELSEWHERE

CITY           SKY/WX    TMP DP  RH WIND       PRES   REMARKS
HARRISBURG PA  CLOUDY    72  69  90 N6        29.98S
BALTIMORE      CLOUDY    78  69  73 W3        29.98S
ANNAPOLIS      CLOUDY    81  71  71 CALM      29.98S
ANDREWS AFB    DRIZZLE   77  72  83 SW7       29.99F
WILMINGTON DE  CLOUDY    76  71  85 S14G23    30.00S
PHILADELPHIA   CLOUDY    77  68  73 S9        30.00S
WILDWOOD NJ*   CLOUDY    75  66  73 SE8       30.03S
ATLANTIC CITY  CLOUDY    73  65  75 S8        30.01F
HENDERSON NC   PTCLDY    79  72  79 CALM      30.05R
GREENSBORO     MOCLDY    83  69  62 SW6       30.08R
ROCKY MOUNT    PTCLDY    80  76  87 CALM      30.02R
FAYETTEVILLE   PTCLDY    87  68  52 NW3       30.03R
CHARLOTTE      PTCLDY    84  66  54 SW3       30.08S
$$

VAZ100-220100-
MARINE

STATION/POSITION TIME  TEMP    WIND        PRES    WAVE   SWELL
                       AIR SEA DIR/SP/G            HT/PER HT/PER
                 (UTC) (F)     (DEG/KT/KT) (MB)    (FT/S) (FT/S)
44066 TX TWR #4  0000   71 74   90/  8/ 10 1017.1R   4/ 7   3/ 7
CAPE MAY NJ      0000   74 81  140/  6/  8 1015.9S
LEWES DE         0000   75 76  170/  7/ 10 1015.8F
15NM E FENWICK I 0000   76 75              1016.3R   2/ 6
OCEAN-CITY-INLET 0000   76 77  160/  7/  9 1016.0F
WACHAPREAGUE VA  0000   78 83  170/  6/  8 1015.9F
THOMAS POINT MD  0000   80 79  230/  3/  4 1015.8F
GOOSES REEF MD   0000   80     220/  4/  4 1015.8F
COVE POINT MD    0000   80     190/  7/  7 1015.1F
SOLOMONS ISLAND  0000      82                N/A
BISHOPS HEAD MD  0000   80 83  160/ 11/ 12 1015.1R
PINEY POINT MD   0000          180/  7/  9   N/A
POTOMAC MD       0000   77     230/ 10/ 14 1015.2R
CAMBRIDGE MD     0000   81 78  190/  4/  6 1015.1S
LEWISETTA VA     0000   76 82  120/ 11/ 14 1015.3F
RAPPAHANNOCK LGT 0000          140/  8/  9 1016.0F
STINGRAY PT      0000   81     170/  6/  8 1016.2F
YORK RVR RNG VA  0000   81     170/  8/  8 1015.2F
YORKTOWN VA      0000   82 80  160/  3/  4 1015.4F
JAMESTOWN VA     0000   82     180/  4/  6   N/A
DOMINION TERM VA 0000   83      70/  1/  3 1016.0R
KIPTOPEKE VA     0000      83  150/  5/  6   N/A
CHES BAY BRIDGE  0000   80 78  120/  5/  7 1015.5R
CAPE HENRY VA    0000   78     160/  4/  5 1014.7R
CHESAPEAKE LGHT  2300   78     160/  6/  7 1016.6F
WILLOUBY STN VA  0000   83      CALM  /  1 1014.8R
S CRANEY ISL VA  0000          100/  3/  4 1015.6R
CAPE HENRY BUOY  2300      80                N/A     2/ 7
1ST LANDING BUOY 0000   79     160/  8/ 10 1015.5S
CAPE CHARLES BUO 0000      79                N/A     2/ 7   2/ 7
OFFSHORE WE BUOY 2300      80                N/A     2/ 7   2/ 7
64NM E OF VA BCH 0000   79 78  120/  4/  6 1015.9R   2/ 7   2/ 7
DUCK PIER NC     0000   81 79  150/  4/  4 1015.1S
44056 DUCK FRF   0000                        N/A     2/ 6
OREGON INLET NC  0000   82 85  200/  7/  8 1015.9F
HATTERAS NC      0000   82 83  220/  6/  9 1016.6S
DIAMOND SHLS NC  0000   81     200/  6/  8 1016.3R   2/ 9   2/ 9
CAPE LOOKOUT NC  2300   83     210/  4/  5 1016.2F
$$



USA.gov is the U.S. government's official web portal to all federal, state and local government web resources and services.